Het weer levert geen direct gevaar op.    Er zijn geen waarschuwingen afgegeven.


Onweer radar Meer informatie blitzortung!


Regen radar Meer informatie rain snow radar


Bezoek onze andere website:

Template documentation
and downloads

And another site



Select another period ( hide this area )

Eenheden Periode Custom range Directly to
Metrisch Engels Beide
Dagelijkse Wekelijkse Maandelijkse Jaarlijkse
use both date-selectors for a custom range
previous Dag
With this date

WeatherUnderground graphs for this period ( click here )


Dagelijkse Samenvatting Donderdag 25 april 2019
Tijd Temp. ( °C ) Dew pt. ( °C ) Wind ( km/h ) van Windvlaag ( km/h ) Luchtdruk ( hPa ) Humid.( % ) Rainrate ( cm )
Hoog17,9 10,9 24,1 OZO ( 457/1809 ) 12,6 1004,0 93 2,00
Gemiddeld12,0 9,4 10,8 OZO #43/168 5,1 1002,8 85 1,60
Laag9,3 8,3 3,2   1,0 1001,4 61 -
Dagelijkse Tabular details for Donderdag 25 april 2019
Tijd Temp. ( °C ) Dew pt. ( °C ) Wind ( km/h ) van Windvlaag ( km/h ) Luchtdruk ( hPa ) Humid.( % ) Rainrate ( cm )
00:04 12,1 10,8 18,5 OZO 5,1 1002,0 92 2,00
00:09 12,1 10,9 11,3 ZO 2,7 1002,0 93 2,00
00:14 12,0 10,9 9,3 OZO 4,2 1001,8 93 2,00
00:19 12,0 10,9 7,4 ZZO 3,1 1001,8 93 2,00
00:24 11,9 10,8 5,6 OZO 2,6 1001,7 93 1,80
00:29 11,9 10,8 7,4 ZZO 6,0 1001,7 93 1,80
00:34 11,9 10,8 9,7 Zuiden 5,1 1001,6 93 1,50
00:39 11,8 10,7 9,3 Zuiden 5,5 1001,6 93 1,50
00:44 11,8 10,7 11,3 Zuiden 8,5 1001,7 93 1,30
00:49 11,8 10,7 7,4 OZO 5,8 1001,6 93 1,00
00:54 11,8 10,7 14,8 OZO 6,4 1001,5 93 0,80
00:59 11,7 10,6 9,3 ZW 7,1 1001,4 93 0,50
01:04 11,7 10,6 11,1 ZO 2,9 1001,6 93 0,50
01:09 11,7 10,6 16,7 ZW 6,3 1001,7 93 0,50
01:14 11,7 10,6 6,4 Zuiden 3,4 1001,6 93 0,50
01:19 11,6 10,5 11,1 ZZO 5,6 1001,7 93 0,30
01:24 11,6 10,4 9,3 Zuiden 8,4 1001,7 93 0,30
01:29 11,6 10,5 16,7 ZW 7,9 1001,6 93 -
01:34 11,6 10,4 14,8 ZZO 3,7 1001,7 93 -
01:39 11,6 10,4 13,0 ZW 5,3 1001,8 93 -
01:44 11,6 10,4 5,6 OZO 5,1 1002,0 93 -
01:49 11,6 10,4 9,7 Zuiden 4,5 1002,0 93 -
01:54 11,6 10,4 9,7 ZW 5,6 1002,0 93 -
01:59 11,6 10,4 6,4 OZO 2,9 1002,0 93 -
02:04 11,5 10,4 5,6 ZZW 6,3 1002,0 93 -
02:09 11,4 10,3 11,3 ZZW 8,5 1001,9 93 -
02:14 11,4 10,3 18,5 Zuiden 8,0 1001,9 93 -
02:19 11,3 10,2 14,5 ZZO 6,0 1002,0 93 -
02:24 11,2 10,1 5,6 ZZO 2,1 1002,1 93 -
02:29 11,2 10,1 5,6 ZO 3,7 1002,2 93 -
02:34 11,1 10,0 8,0 ZZO 3,1 1002,3 93 -
02:39 11,0 9,9 11,1 ZZO 3,7 1002,2 93 -
02:44 10,9 9,8 7,4 Zuiden 2,7 1002,2 93 -
02:49 10,9 9,8 9,3 ZZO 5,1 1002,2 93 -
02:54 10,8 9,7 9,3 Zuiden 3,4 1002,3 93 -
02:59 10,8 9,7 8,0 ZO 4,3 1002,4 93 -
03:04 10,7 9,6 6,4 ZZO 4,2 1002,5 93 -
03:09 10,7 9,6 13,0 ZZO 6,4 1002,7 93 -
03:14 10,6 9,5 11,1 Zuiden 5,0 1002,8 93 -
03:19 10,6 9,4 5,6 ZO 4,2 1002,7 93 -
03:24 10,5 9,4 5,6 ZZO 2,7 1002,8 93 -
03:29 10,5 9,4 3,2 ZZO 2,4 1003,0 93 -
03:34 10,4 9,3 5,6 ZO 1,4 1003,1 93 -
03:39 10,4 9,3 5,6 Zuiden 2,9 1003,0 93 -
03:44 10,3 9,3 9,3 WNW 5,8 1003,0 93 -
03:49 10,3 9,2 9,3 ZO 2,6 1002,9 93 -
03:54 10,2 9,2 5,6 OZO 3,4 1002,9 93 -
03:59 10,2 9,1 7,4 ZO 5,0 1002,9 93 -
04:04 10,2 9,1 7,4 ZZO 3,4 1002,9 93 -
04:09 10,1 9,0 3,2 ZZO 2,1 1002,8 93 -
04:14 10,0 8,9 7,4 ZZO 2,6 1002,8 93 -
04:19 9,9 8,9 5,6 ZZO 3,2 1002,7 93 -
04:24 9,9 8,8 5,6 OZO 3,5 1002,7 93 -
04:29 9,8 8,8 5,6 ZO 1,8 1002,7 93 -
04:34 9,8 8,7 9,3 Zuiden 2,6 1002,7 93 -
04:39 9,8 8,7 5,6 Zuiden 1,9 1002,4 93 -
04:44 9,7 8,6 5,6 ZO 2,9 1002,6 93 -
04:49 9,7 8,6 9,3 ZO 1,1 1002,6 93 -
04:54 9,7 8,6 9,3 OZO 4,2 1002,7 93 -
04:59 9,6 8,6 11,1 ZZO 3,4 1002,6 93 -
05:04 9,6 8,6 5,6 ZZO 3,2 1002,6 93 -
05:09 9,6 8,6 5,6 ZO 4,3 1002,5 93 -
05:14 9,6 8,5 7,4 ZZW 2,1 1002,5 93 -
05:19 9,5 8,4 5,6 OZO 2,7 1002,5 93 -
05:24 9,4 8,4 8,0 ONO 4,8 1002,5 93 -
05:29 9,4 8,4 7,4 OZO 3,5 1002,4 93 -
05:34 9,4 8,4 9,3 ZO 3,2 1002,4 93 0,30
05:39 9,4 8,4 5,6 ZO 3,5 1002,4 93 0,30
05:44 9,4 8,4 7,4 OZO 5,0 1002,3 93 0,30
05:49 9,4 8,4 5,6 OZO 1,3 1002,3 93 0,30
05:54 9,4 8,4 5,6 OZO 3,1 1002,1 93 0,30
05:59 9,4 8,4 5,6 OZO 1,0 1002,0 93 0,30
06:04 9,4 8,3 3,7 OZO 1,8 1002,1 93 0,30
06:09 9,4 8,3 3,7 OZO 1,6 1002,2 93 0,30
06:14 9,4 8,3 5,6 OZO 3,1 1002,1 93 0,30
06:19 9,3 8,3 5,6 OZO 3,1 1002,1 93 0,30
06:24 9,3 8,3 14,8 Oosten 3,7 1002,1 93 0,30
06:29 9,4 8,3 5,6 Oosten 1,9 1002,1 93 0,30
06:34 9,4 8,4 6,4 Oosten 4,7 1002,2 93 -
06:39 9,5 8,4 6,4 ZZO 2,3 1002,2 93 -
06:44 9,6 8,5 5,6 Oosten 2,7 1002,2 93 -
06:49 9,6 8,6 4,8 ZO 2,3 1002,4 93 -
06:54 9,7 8,6 5,6 ZO 2,6 1002,4 93 -
06:59 9,7 8,7 11,1 OZO 2,4 1002,3 93 -
07:04 9,8 8,7 9,7 OZO 5,6 1002,4 93 -
07:09 9,9 8,8 13,0 OZO 2,9 1002,3 93 -
07:14 10,0 8,9 6,4 OZO 4,5 1002,2 93 -
07:19 10,1 9,1 13,0 ONO 5,8 1002,3 93 -
07:24 10,2 8,9 13,0 OZO 5,1 1002,3 92 -
07:29 10,2 8,8 11,1 OZO 6,0 1002,3 91 -
07:34 10,3 8,9 11,1 OZO 3,1 1002,3 91 -
07:39 10,4 8,8 11,1 OZO 2,1 1002,4 90 -
07:44 10,4 8,8 7,4 OZO 5,8 1002,4 90 -
07:49 10,5 8,9 5,6 Oosten 4,2 1002,4 90 -
07:54 10,5 8,8 14,8 ZZO 8,4 1002,5 89 -
07:59 10,6 8,8 7,4 NO 4,3 1002,6 89 -
08:04 10,6 8,9 7,4 ZO 2,9 1002,7 89 -
08:09 10,7 8,8 3,7 ZZW 2,6 1002,7 88 -
08:14 10,7 8,8 14,8 NO 4,5 1002,7 88 -
08:19 10,8 8,8 16,7 OZO 7,1 1002,6 87 -
08:24 10,9 8,9 14,8 ZZO 4,8 1002,6 87 -
08:29 11,1 8,8 18,5 OZO 7,6 1002,6 86 -
08:34 11,2 8,8 9,7 Oosten 6,8 1002,5 85 -
08:39 11,3 8,7 14,8 ZZO 5,5 1002,7 84 -
08:44 11,4 8,8 17,7 Oosten 7,6 1002,6 84 -
08:49 11,4 8,8 13,0 OZO 7,1 1002,9 84 -
08:54 11,6 8,9 5,6 Oosten 7,4 1002,8 84 -
08:59 11,6 8,8 7,4 OZO 7,1 1002,8 83 -
09:04 11,8 9,1 14,8 ZZW 6,9 1002,8 83 -
09:09 12,1 9,3 5,6 OZO 1,9 1002,9 83 -
09:14 12,2 9,2 9,7 Zuiden 7,4 1002,8 82 -
09:19 12,3 9,1 13,0 Oosten 7,2 1003,2 81 -
09:24 12,2 9,1 13,0 ZO 3,4 1003,0 81 -
09:29 12,2 9,0 14,5 ZO 7,4 1003,2 81 -
09:34 12,1 8,9 16,1 ZO 7,4 1003,3 81 -
09:39 12,1 8,9 7,4 ZW 2,7 1003,4 81 -
09:44 12,1 8,7 14,8 ZZW 4,2 1003,6 80 -
09:49 12,0 8,7 16,7 ZZO 9,0 1003,5 80 -
09:54 12,0 8,7 9,7 ZZO 3,9 1003,6 80 -
09:59 12,0 8,7 5,6 ZO 5,6 1003,7 80 -
10:04 12,0 8,8 3,7 Zuiden 3,2 1003,8 81 -
10:09 12,0 9,0 5,6 ZZO 2,6 1004,0 82 -
10:14 12,0 9,0 3,7 Zuiden 2,3 1003,9 82 -
10:19 12,0 9,0 16,7 OZO 5,1 1003,9 82 -
10:24 12,0 9,0 11,1 ZO 9,0 1003,9 82 -
10:29 12,1 9,1 7,4 ZZO 3,4 1003,7 82 -
10:34 12,2 9,4 9,3 Zuiden 8,8 1003,7 83 -
10:39 12,4 9,6 7,4 ZO 3,9 1003,8 83 -
10:44 12,7 9,7 7,4 ZZW 5,1 1003,9 82 -
10:49 12,9 9,7 11,1 Zuiden 5,3 1003,8 81 -
10:54 13,1 9,7 13,0 WZW 5,8 1003,8 80 -
10:59 13,3 9,8 18,5 OZO 9,5 1003,6 79 -
11:04 13,6 9,8 18,5 ZZO 4,5 1003,7 78 -
11:09 13,6 9,4 16,7 ZZO 3,4 1003,7 76 -
11:14 13,8 9,9 9,3 Oosten 4,0 1003,7 77 -
11:19 14,2 10,0 22,2 OZO 4,0 1003,6 76 -
11:24 14,5 9,9 13,0 NNO 10,3 1003,6 74 -
11:29 14,8 9,8 14,8 ZW 7,4 1003,7 72 -
11:34 15,1 9,9 16,7 WZW 5,3 1003,7 71 -
11:39 15,3 9,7 13,0 ZZO 7,6 1003,8 69 -
11:44 15,5 9,6 18,5 Oosten 7,4 1003,7 68 -
11:49 15,6 9,5 18,5 OZO 7,6 1003,7 67 -
11:54 15,6 9,4 11,1 Oosten 5,8 1003,6 67 -
11:59 15,7 9,6 16,7 ZO 6,8 1003,8 67 -
12:04 15,6 9,3 16,7 Oosten 10,9 1003,7 66 -
12:09 15,5 9,2 16,7 Zuiden 8,0 1003,6 66 -
12:14 15,6 9,4 13,0 ZZO 5,0 1003,6 67 -
12:19 15,9 9,6 14,8 NO 7,1 1003,6 66 -
12:24 16,2 9,8 18,5 Oosten 6,9 1003,7 66 -
12:29 16,4 9,6 18,5 ZZW 9,2 1003,7 64 -
12:34 16,6 9,8 18,5 OZO 7,2 1003,7 64 -
12:39 16,8 9,7 9,3 ONO 6,6 1003,5 63 -
12:44 16,8 9,4 22,2 ZO 8,2 1003,5 62 -
12:49 16,7 9,7 24,1 ONO 7,7 1003,5 63 -
12:54 16,9 9,8 20,4 Oosten 6,8 1003,4 63 -
12:59 17,1 10,2 7,4 Oosten 7,1 1003,4 64 -
13:04 17,2 10,1 11,3 OZO 7,1 1003,4 63 -
13:09 17,3 9,9 18,5 Zuiden 9,8 1003,4 62 -
13:14 17,3 9,9 11,1 ZO 6,4 1003,4 62 -
13:19 17,1 9,8 18,5 Oosten 9,0 1003,4 62 -
13:24 17,1 9,7 16,7 NO 7,6 1003,3 62 -
13:29 17,2 9,9 18,5 ZZW 12,6 1003,4 62 -
13:34 17,4 9,8 16,7 WZW 5,5 1003,3 61 -
13:39 17,4 9,8 18,5 Oosten 10,1 1003,5 61 -
13:44 17,3 9,7 13,0 OZO 2,7 1003,5 61 -
13:49 17,4 9,8 18,5 ZO 10,5 1003,5 61 -
13:54 17,6 10,2 16,7 OZO 6,0 1003,4 62 -
13:59 17,9 10,3 22,2 OZO 9,5 1003,3 61 -
Dagelijkse Samenvatting Donderdag 25 april 2019
Tijd Temp. ( °C ) Dew pt. ( °C ) Wind ( km/h ) van Windvlaag ( km/h ) Luchtdruk ( hPa ) Humid.( % ) Rainrate ( cm )
Hoog17,9 10,9 24,1 OZO ( 457/1809 ) 12,6 1004,0 93 2,00
Gemiddeld12,0 9,4 10,8 OZO #43/168 5,1 1002,8 85 1,60
Laag9,3 8,3 3,2   1,0 1001,4 61 -
Dagelijkse Tabular details for Donderdag 25 april 2019
Tijd Temp. ( °C ) Dew pt. ( °C ) Wind ( km/h ) van Windvlaag ( km/h ) Luchtdruk ( hPa ) Humid.( % ) Rainrate ( cm )
00:04 12,1 10,8 18,5 OZO 5,1 1002,0 92 2,00
00:09 12,1 10,9 11,3 ZO 2,7 1002,0 93 2,00
00:14 12,0 10,9 9,3 OZO 4,2 1001,8 93 2,00
00:19 12,0 10,9 7,4 ZZO 3,1 1001,8 93 2,00
00:24 11,9 10,8 5,6 OZO 2,6 1001,7 93 1,80
00:29 11,9 10,8 7,4 ZZO 6,0 1001,7 93 1,80
00:34 11,9 10,8 9,7 Zuiden 5,1 1001,6 93 1,50
00:39 11,8 10,7 9,3 Zuiden 5,5 1001,6 93 1,50
00:44 11,8 10,7 11,3 Zuiden 8,5 1001,7 93 1,30
00:49 11,8 10,7 7,4 OZO 5,8 1001,6 93 1,00
00:54 11,8 10,7 14,8 OZO 6,4 1001,5 93 0,80
00:59 11,7 10,6 9,3 ZW 7,1 1001,4 93 0,50
01:04 11,7 10,6 11,1 ZO 2,9 1001,6 93 0,50
01:09 11,7 10,6 16,7 ZW 6,3 1001,7 93 0,50
01:14 11,7 10,6 6,4 Zuiden 3,4 1001,6 93 0,50
01:19 11,6 10,5 11,1 ZZO 5,6 1001,7 93 0,30
01:24 11,6 10,4 9,3 Zuiden 8,4 1001,7 93 0,30
01:29 11,6 10,5 16,7 ZW 7,9 1001,6 93 -
01:34 11,6 10,4 14,8 ZZO 3,7 1001,7 93 -
01:39 11,6 10,4 13,0 ZW 5,3 1001,8 93 -
01:44 11,6 10,4 5,6 OZO 5,1 1002,0 93 -
01:49 11,6 10,4 9,7 Zuiden 4,5 1002,0 93 -
01:54 11,6 10,4 9,7 ZW 5,6 1002,0 93 -
01:59 11,6 10,4 6,4 OZO 2,9 1002,0 93 -
02:04 11,5 10,4 5,6 ZZW 6,3 1002,0 93 -
02:09 11,4 10,3 11,3 ZZW 8,5 1001,9 93 -
02:14 11,4 10,3 18,5 Zuiden 8,0 1001,9 93 -
02:19 11,3 10,2 14,5 ZZO 6,0 1002,0 93 -
02:24 11,2 10,1 5,6 ZZO 2,1 1002,1 93 -
02:29 11,2 10,1 5,6 ZO 3,7 1002,2 93 -
02:34 11,1 10,0 8,0 ZZO 3,1 1002,3 93 -
02:39 11,0 9,9 11,1 ZZO 3,7 1002,2 93 -
02:44 10,9 9,8 7,4 Zuiden 2,7 1002,2 93 -
02:49 10,9 9,8 9,3 ZZO 5,1 1002,2 93 -
02:54 10,8 9,7 9,3 Zuiden 3,4 1002,3 93 -
02:59 10,8 9,7 8,0 ZO 4,3 1002,4 93 -
03:04 10,7 9,6 6,4 ZZO 4,2 1002,5 93 -
03:09 10,7 9,6 13,0 ZZO 6,4 1002,7 93 -
03:14 10,6 9,5 11,1 Zuiden 5,0 1002,8 93 -
03:19 10,6 9,4 5,6 ZO 4,2 1002,7 93 -
03:24 10,5 9,4 5,6 ZZO 2,7 1002,8 93 -
03:29 10,5 9,4 3,2 ZZO 2,4 1003,0 93 -
03:34 10,4 9,3 5,6 ZO 1,4 1003,1 93 -
03:39 10,4 9,3 5,6 Zuiden 2,9 1003,0 93 -
03:44 10,3 9,3 9,3 WNW 5,8 1003,0 93 -
03:49 10,3 9,2 9,3 ZO 2,6 1002,9 93 -
03:54 10,2 9,2 5,6 OZO 3,4 1002,9 93 -
03:59 10,2 9,1 7,4 ZO 5,0 1002,9 93 -
04:04 10,2 9,1 7,4 ZZO 3,4 1002,9 93 -
04:09 10,1 9,0 3,2 ZZO 2,1 1002,8 93 -
04:14 10,0 8,9 7,4 ZZO 2,6 1002,8 93 -
04:19 9,9 8,9 5,6 ZZO 3,2 1002,7 93 -
04:24 9,9 8,8 5,6 OZO 3,5 1002,7 93 -
04:29 9,8 8,8 5,6 ZO 1,8 1002,7 93 -
04:34 9,8 8,7 9,3 Zuiden 2,6 1002,7 93 -
04:39 9,8 8,7 5,6 Zuiden 1,9 1002,4 93 -
04:44 9,7 8,6 5,6 ZO 2,9 1002,6 93 -
04:49 9,7 8,6 9,3 ZO 1,1 1002,6 93 -
04:54 9,7 8,6 9,3 OZO 4,2 1002,7 93 -
04:59 9,6 8,6 11,1 ZZO 3,4 1002,6 93 -
05:04 9,6 8,6 5,6 ZZO 3,2 1002,6 93 -
05:09 9,6 8,6 5,6 ZO 4,3 1002,5 93 -
05:14 9,6 8,5 7,4 ZZW 2,1 1002,5 93 -
05:19 9,5 8,4 5,6 OZO 2,7 1002,5 93 -
05:24 9,4 8,4 8,0 ONO 4,8 1002,5 93 -
05:29 9,4 8,4 7,4 OZO 3,5 1002,4 93 -
05:34 9,4 8,4 9,3 ZO 3,2 1002,4 93 0,30
05:39 9,4 8,4 5,6 ZO 3,5 1002,4 93 0,30
05:44 9,4 8,4 7,4 OZO 5,0 1002,3 93 0,30
05:49 9,4 8,4 5,6 OZO 1,3 1002,3 93 0,30
05:54 9,4 8,4 5,6 OZO 3,1 1002,1 93 0,30
05:59 9,4 8,4 5,6 OZO 1,0 1002,0 93 0,30
06:04 9,4 8,3 3,7 OZO 1,8 1002,1 93 0,30
06:09 9,4 8,3 3,7 OZO 1,6 1002,2 93 0,30
06:14 9,4 8,3 5,6 OZO 3,1 1002,1 93 0,30
06:19 9,3 8,3 5,6 OZO 3,1 1002,1 93 0,30
06:24 9,3 8,3 14,8 Oosten 3,7 1002,1 93 0,30
06:29 9,4 8,3 5,6 Oosten 1,9 1002,1 93 0,30
06:34 9,4 8,4 6,4 Oosten 4,7 1002,2 93 -
06:39 9,5 8,4 6,4 ZZO 2,3 1002,2 93 -
06:44 9,6 8,5 5,6 Oosten 2,7 1002,2 93 -
06:49 9,6 8,6 4,8 ZO 2,3 1002,4 93 -
06:54 9,7 8,6 5,6 ZO 2,6 1002,4 93 -
06:59 9,7 8,7 11,1 OZO 2,4 1002,3 93 -
07:04 9,8 8,7 9,7 OZO 5,6 1002,4 93 -
07:09 9,9 8,8 13,0 OZO 2,9 1002,3 93 -
07:14 10,0 8,9 6,4 OZO 4,5 1002,2 93 -
07:19 10,1 9,1 13,0 ONO 5,8 1002,3 93 -
07:24 10,2 8,9 13,0 OZO 5,1 1002,3 92 -
07:29 10,2 8,8 11,1 OZO 6,0 1002,3 91 -
07:34 10,3 8,9 11,1 OZO 3,1 1002,3 91 -
07:39 10,4 8,8 11,1 OZO 2,1 1002,4 90 -
07:44 10,4 8,8 7,4 OZO 5,8 1002,4 90 -
07:49 10,5 8,9 5,6 Oosten 4,2 1002,4 90 -
07:54 10,5 8,8 14,8 ZZO 8,4 1002,5 89 -
07:59 10,6 8,8 7,4 NO 4,3 1002,6 89 -
08:04 10,6 8,9 7,4 ZO 2,9 1002,7 89 -
08:09 10,7 8,8 3,7 ZZW 2,6 1002,7 88 -
08:14 10,7 8,8 14,8 NO 4,5 1002,7 88 -
08:19 10,8 8,8 16,7 OZO 7,1 1002,6 87 -
08:24 10,9 8,9 14,8 ZZO 4,8 1002,6 87 -
08:29 11,1 8,8 18,5 OZO 7,6 1002,6 86 -
08:34 11,2 8,8 9,7 Oosten 6,8 1002,5 85 -
08:39 11,3 8,7 14,8 ZZO 5,5 1002,7 84 -
08:44 11,4 8,8 17,7 Oosten 7,6 1002,6 84 -
08:49 11,4 8,8 13,0 OZO 7,1 1002,9 84 -
08:54 11,6 8,9 5,6 Oosten 7,4 1002,8 84 -
08:59 11,6 8,8 7,4 OZO 7,1 1002,8 83 -
09:04 11,8 9,1 14,8 ZZW 6,9 1002,8 83 -
09:09 12,1 9,3 5,6 OZO 1,9 1002,9 83 -
09:14 12,2 9,2 9,7 Zuiden 7,4 1002,8 82 -
09:19 12,3 9,1 13,0 Oosten 7,2 1003,2 81 -
09:24 12,2 9,1 13,0 ZO 3,4 1003,0 81 -
09:29 12,2 9,0 14,5 ZO 7,4 1003,2 81 -
09:34 12,1 8,9 16,1 ZO 7,4 1003,3 81 -
09:39 12,1 8,9 7,4 ZW 2,7 1003,4 81 -
09:44 12,1 8,7 14,8 ZZW 4,2 1003,6 80 -
09:49 12,0 8,7 16,7 ZZO 9,0 1003,5 80 -
09:54 12,0 8,7 9,7 ZZO 3,9 1003,6 80 -
09:59 12,0 8,7 5,6 ZO 5,6 1003,7 80 -
10:04 12,0 8,8 3,7 Zuiden 3,2 1003,8 81 -
10:09 12,0 9,0 5,6 ZZO 2,6 1004,0 82 -
10:14 12,0 9,0 3,7 Zuiden 2,3 1003,9 82 -
10:19 12,0 9,0 16,7 OZO 5,1 1003,9 82 -
10:24 12,0 9,0 11,1 ZO 9,0 1003,9 82 -
10:29 12,1 9,1 7,4 ZZO 3,4 1003,7 82 -
10:34 12,2 9,4 9,3 Zuiden 8,8 1003,7 83 -
10:39 12,4 9,6 7,4 ZO 3,9 1003,8 83 -
10:44 12,7 9,7 7,4 ZZW 5,1 1003,9 82 -
10:49 12,9 9,7 11,1 Zuiden 5,3 1003,8 81 -
10:54 13,1 9,7 13,0 WZW 5,8 1003,8 80 -
10:59 13,3 9,8 18,5 OZO 9,5 1003,6 79 -
11:04 13,6 9,8 18,5 ZZO 4,5 1003,7 78 -
11:09 13,6 9,4 16,7 ZZO 3,4 1003,7 76 -
11:14 13,8 9,9 9,3 Oosten 4,0 1003,7 77 -
11:19 14,2 10,0 22,2 OZO 4,0 1003,6 76 -
11:24 14,5 9,9 13,0 NNO 10,3 1003,6 74 -
11:29 14,8 9,8 14,8 ZW 7,4 1003,7 72 -
11:34 15,1 9,9 16,7 WZW 5,3 1003,7 71 -
11:39 15,3 9,7 13,0 ZZO 7,6 1003,8 69 -
11:44 15,5 9,6 18,5 Oosten 7,4 1003,7 68 -
11:49 15,6 9,5 18,5 OZO 7,6 1003,7 67 -
11:54 15,6 9,4 11,1 Oosten 5,8 1003,6 67 -
11:59 15,7 9,6 16,7 ZO 6,8 1003,8 67 -
12:04 15,6 9,3 16,7 Oosten 10,9 1003,7 66 -
12:09 15,5 9,2 16,7 Zuiden 8,0 1003,6 66 -
12:14 15,6 9,4 13,0 ZZO 5,0 1003,6 67 -
12:19 15,9 9,6 14,8 NO 7,1 1003,6 66 -
12:24 16,2 9,8 18,5 Oosten 6,9 1003,7 66 -
12:29 16,4 9,6 18,5 ZZW 9,2 1003,7 64 -
12:34 16,6 9,8 18,5 OZO 7,2 1003,7 64 -
12:39 16,8 9,7 9,3 ONO 6,6 1003,5 63 -
12:44 16,8 9,4 22,2 ZO 8,2 1003,5 62 -
12:49 16,7 9,7 24,1 ONO 7,7 1003,5 63 -
12:54 16,9 9,8 20,4 Oosten 6,8 1003,4 63 -
12:59 17,1 10,2 7,4 Oosten 7,1 1003,4 64 -
13:04 17,2 10,1 11,3 OZO 7,1 1003,4 63 -
13:09 17,3 9,9 18,5 Zuiden 9,8 1003,4 62 -
13:14 17,3 9,9 11,1 ZO 6,4 1003,4 62 -
13:19 17,1 9,8 18,5 Oosten 9,0 1003,4 62 -
13:24 17,1 9,7 16,7 NO 7,6 1003,3 62 -
13:29 17,2 9,9 18,5 ZZW 12,6 1003,4 62 -
13:34 17,4 9,8 16,7 WZW 5,5 1003,3 61 -
13:39 17,4 9,8 18,5 Oosten 10,1 1003,5 61 -
13:44 17,3 9,7 13,0 OZO 2,7 1003,5 61 -
13:49 17,4 9,8 18,5 ZO 10,5 1003,5 61 -
13:54 17,6 10,2 16,7 OZO 6,0 1003,4 62 -
13:59 17,9 10,3 22,2 OZO 9,5 1003,3 61 -

Download your copy of this data-set  here

Our weather-data as stored at Weather Underground. Script ontwikkeld door Jim McMurry. Aangepast voor de template door Leuven-Template.eu

U vindt ons ook hier:

Het Weer Aktueel

European Weather Network

Weather Underground

Benelux Weer Netwerk

Citizen Weather Observer Program (CWOP)

Apparatuur in gebruik:

Weerstation
Davis VP2

Weerprogramma
Weather Display

Weercomputer
My Computer

Webleverancier
WeservIT

Davis VP2

Weather Display

My Computer

WeservIT